Waarnemingen

Advertentie
Mijn weer
Plymouth, Groot Brittannië (3827): temperatuur & dauwpunt: 14.10.2017 11:00:00 - 20.10.2017 11:00:00 (BST)Plymouth, Groot Brittannië (3827): windsnelheid & windstoten: 14.10.2017 11:00:00 - 20.10.2017 11:00:00 (BST)Plymouth, Groot Brittannië (3827): windrichting: 14.10.2017 11:00:00 - 20.10.2017 11:00:00 (BST)Plymouth, Groot Brittannië (3827): luchtdruk: 14.10.2017 11:00:00 - 20.10.2017 11:00:00 (BST)Plymouth, Groot Brittannië (3827): zicht: 14.10.2017 11:00:00 - 20.10.2017 11:00:00 (BST)Plymouth, Groot Brittannië (3827): neerslag: 14.10.2017 11:00:00 - 20.10.2017 11:00:00 (BST)
Datum & Tijd tt [°C] td [°C] ff [km/u] ff [kn] fx [km/u] fx [kn] dd ppp [hPa] vv [km] rr [mm]
20.10.2017 11:00:00 12,6 8,0 18 10 - - W 1009,7 12 0,0
20.10.2017 10:00:00 11,6 7,4 26 14 - - W 1009,5 15 0,0
20.10.2017 09:00:00 10,2 7,3 21 11 - - W 1009,1 14 0,0
20.10.2017 08:00:00 9,7 6,6 26 14 - - W 1008,0 10 0,0
20.10.2017 07:00:00 9,7 6,6 28 15 - - W 1006,9 13 0,0
20.10.2017 06:00:00 10,6 7,6 35 19 54 29 W 1005,9 10 0,0
20.10.2017 05:00:00 11,2 8,2 39 21 57 31 W 1004,6 18 0,0
20.10.2017 04:00:00 11,3 9,1 37 20 54 29 W 1003,6 12 0,0
20.10.2017 03:00:00 11,4 9,8 41 22 63 34 W 1002,1 11 0,0
20.10.2017 02:00:00 11,2 10,5 46 25 65 35 W 1000,7 10 0,0
20.10.2017 01:00:00 11,6 11,3 41 22 68 37 WZW 999,3 6 0,2
20.10.2017 00:00:00 11,7 11,3 54 29 81 44 WZW 998,0 4,4 0,4
19.10.2017 23:00:00 12,0 11,2 52 28 76 41 WZW 996,9 4,5 0,0
19.10.2017 22:00:00 11,9 11,3 50 27 85 46 WZW 996,1 9 0,0
19.10.2017 21:00:00 11,9 11,4 63 34 81 44 ZW 995,3 3,7 0,0
19.10.2017 20:00:00 12,4 11,5 54 29 70 38 ZW 995,4 8 0,2
19.10.2017 19:00:00 12,7 11,5 42 23 63 34 ZW 995,5 9 0,0
19.10.2017 18:00:00 13,4 12,7 37 20 70 38 ZW 995,2 9 1,2
19.10.2017 17:00:00 14,0 13,8 41 22 68 37 Z 994,8 3,0 2,4
19.10.2017 16:00:00 13,6 13,4 34 18 52 28 ZZO 996,1 3,1 4,4
19.10.2017 15:00:00 14,0 13,5 28 15 48 26 ZZO 998,0 2,4 1,4
19.10.2017 14:00:00 14,7 13,5 31 17 46 25 Z 999,5 12 0,0
19.10.2017 13:00:00 14,3 13,5 22 12 - - Z 1000,5 15 0,0
19.10.2017 12:00:00 14,3 13,1 18 10 - - Z 1001,5 12 0,0
19.10.2017 11:00:00 14,7 14,4 22 12 - - Z 1002,4 5 0,0
19.10.2017 10:00:00 14,2 14,2 13 7 - - ZO 1002,8 5 0,0
19.10.2017 09:00:00 13,0 13,0 9 5 - - O 1003,5 2,9 0,0
19.10.2017 08:00:00 12,5 12,5 13 7 - - O 1003,4 1,9 0,0
19.10.2017 07:00:00 12,3 12,3 15 8 - - OZO 1003,9 2,0 0,0
19.10.2017 06:00:00 12,0 12,0 13 7 - - OZO 1005,0 1,9 0,0
19.10.2017 05:00:00 12,5 12,4 13 7 - - OZO 1005,5 4,5 0,0
19.10.2017 04:00:00 12,9 12,9 11 6 - - ZO 1006,6 5 0,0
19.10.2017 03:00:00 12,6 12,4 13 7 - - ZO 1007,4 5 0,0
19.10.2017 02:00:00 12,9 12,7 13 7 - - ZZO 1008,0 5 0,0
19.10.2017 01:00:00 12,8 12,4 15 8 - - ZZO 1008,1 6 0,0
19.10.2017 00:00:00 13,3 13,0 15 8 - - ZZO 1008,5 5 0,0
18.10.2017 23:00:00 13,8 13,3 13 7 - - ZZO 1009,2 10 0,0
18.10.2017 22:00:00 13,7 13,3 13 7 - - ZZO 1009,1 - 0,0
18.10.2017 21:00:00 13,6 13,1 13 7 - - ZZO 1009,4 6 0,0
18.10.2017 20:00:00 13,6 13,2 9 5 - - ZZO 1009,7 5 0,0
18.10.2017 19:00:00 13,5 12,9 11 6 - - ZZO 1009,6 4,8 0,0
18.10.2017 18:00:00 14,3 13,2 11 6 - - ZO 1009,6 6 0,0
18.10.2017 17:00:00 15,0 13,1 13 7 - - ZZO 1009,5 8 0,0
18.10.2017 16:00:00 16,0 13,4 8 4 - - ZZO 1009,5 8 0,0
18.10.2017 15:00:00 15,3 13,3 11 6 - - ZZO 1009,8 6 0,0
18.10.2017 14:00:00 16,4 13,3 11 6 - - ZZO 1009,8 10 0,0
18.10.2017 13:00:00 15,6 13,5 8 4 - - OZO 1010,3 9 0,0
18.10.2017 12:00:00 14,3 12,4 15 8 - - OZO 1010,5 8 0,0
18.10.2017 11:00:00 12,7 11,7 21 11 - - OZO 1010,4 6 0,0
18.10.2017 10:00:00 11,6 11,0 16 9 - - O 1010,6 5 0,0
18.10.2017 09:00:00 11,3 10,7 18 10 - - O 1010,4 6 0,0
18.10.2017 08:00:00 11,0 10,4 16 9 - - O 1010,2 7 0,2
18.10.2017 07:00:00 11,1 10,5 13 7 - - O 1010,2 5 1,2
18.10.2017 06:00:00 11,4 10,4 15 8 - - ONO 1010,5 6 0,2
18.10.2017 05:00:00 11,5 10,2 13 7 - - O 1010,8 12 0,0
18.10.2017 04:00:00 11,3 9,9 16 9 - - ONO 1011,4 11 0,0
18.10.2017 03:00:00 11,0 9,6 15 8 - - ONO 1012,0 18 0,0
18.10.2017 02:00:00 10,7 9,7 13 7 - - ONO 1012,9 24 0,0
18.10.2017 01:00:00 10,4 9,6 11 6 - - NO 1013,3 20 0,0
18.10.2017 00:00:00 10,7 10,2 11 6 - - ONO 1014,4 - 0,2
17.10.2017 23:00:00 10,3 10,1 11 6 - - NO 1015,3 4,6 0,2
17.10.2017 22:00:00 10,2 9,9 11 6 - - NO 1015,9 4,0 0,8
17.10.2017 21:00:00 10,4 9,8 8 4 - - NO 1016,3 9 0,2
17.10.2017 20:00:00 10,4 10,0 8 4 - - ONO 1016,3 14 0,0
17.10.2017 19:00:00 10,3 9,7 8 4 - - O 1016,2 10 0,2
17.10.2017 18:00:00 10,6 9,7 8 4 - - OZO 1016,9 9 0,4
17.10.2017 17:00:00 11,0 9,3 9 5 - - O 1017,1 8 0,8
17.10.2017 16:00:00 12,4 9,9 9 5 - - O 1017,7 9 0,0
17.10.2017 15:00:00 12,7 10,1 5 3 - - ZO 1018,7 12 0,0
17.10.2017 14:00:00 12,8 10,5 5 3 - - O 1019,2 11 0,0
17.10.2017 13:00:00 13,6 9,8 5 3 - - ZZO 1020,1 16 0,0
17.10.2017 12:00:00 14,1 11,2 5 3 - - Z 1020,5 11 0,0
17.10.2017 11:00:00 12,2 10,3 5 3 - - O 1020,5 9 0,0
17.10.2017 10:00:00 11,4 10,0 5 3 - - NO 1020,4 9 0,0
17.10.2017 09:00:00 10,4 8,9 4 2 - - O 1020,6 7 0,0
17.10.2017 08:00:00 11,5 9,2 13 7 - - WZW 1020,1 9 0,0
17.10.2017 07:00:00 11,6 9,2 15 8 - - W 1019,7 10 0,0
17.10.2017 06:00:00 11,5 9,3 15 8 - - W 1019,6 9 0,0
17.10.2017 05:00:00 12,0 8,9 22 12 - - WZW 1019,6 9 0,0
17.10.2017 04:00:00 12,7 9,4 26 14 - - WZW 1019,8 9 0,0
17.10.2017 03:00:00 12,8 8,7 29 16 - - WZW 1020,0 11 0,0
17.10.2017 02:00:00 13,0 9,2 34 18 46 25 WZW 1020,2 9 0,0
17.10.2017 01:00:00 13,1 9,8 29 16 54 29 WZW 1020,3 8 0,0
17.10.2017 00:00:00 13,3 9,6 29 16 52 28 WZW 1019,9 9 0,0
16.10.2017 23:00:00 13,5 10,0 37 20 59 32 ZW 1019,3 8 0,0
16.10.2017 22:00:00 13,9 9,8 41 22 67 36 ZW 1018,9 10 0,0
16.10.2017 21:00:00 14,1 10,1 46 25 67 36 ZW 1018,0 9 0,0
16.10.2017 20:00:00 13,9 9,9 41 22 72 39 ZW 1017,3 9 0,0
16.10.2017 19:00:00 14,2 9,8 50 27 74 40 ZW 1016,5 7 0,0
16.10.2017 18:00:00 14,2 9,5 48 26 76 41 ZW 1015,7 7 0,0
16.10.2017 17:00:00 15,1 10,7 52 28 78 42 ZW 1015,2 7 0,0
16.10.2017 16:00:00 15,8 10,8 52 28 74 40 ZW 1014,4 6 0,0
16.10.2017 15:00:00 15,5 11,3 48 26 70 38 ZZW 1014,2 7 0,0
16.10.2017 14:00:00 16,5 12,0 54 29 70 38 ZZW 1013,9 10 0,0
16.10.2017 13:00:00 16,6 11,5 42 23 63 34 ZZW 1013,1 7 0,0
16.10.2017 12:00:00 16,6 12,2 48 26 67 36 ZZW 1012,7 7 0,0
16.10.2017 11:00:00 16,5 12,9 48 26 67 36 Z 1011,8 7 0,0
16.10.2017 10:00:00 16,9 14,8 50 27 72 39 Z 1010,8 5 0,0
16.10.2017 09:00:00 17,6 14,8 46 25 67 36 Z 1010,0 8 0,0
16.10.2017 08:00:00 18,0 14,8 39 21 57 31 ZZO 1009,1 10 0,0
16.10.2017 07:00:00 19,1 14,9 39 21 63 34 ZZO 1008,8 13 0,0
16.10.2017 06:00:00 19,0 15,1 24 13 - - OZO 1009,0 14 0,0
16.10.2017 05:00:00 17,2 14,8 24 13 63 34 O 1009,9 13 0,4
16.10.2017 04:00:00 17,9 14,6 26 14 - - ZO 1012,5 11 0,0
16.10.2017 03:00:00 15,5 14,6 13 7 - - ONO 1012,7 6 0,0
16.10.2017 02:00:00 15,1 14,6 21 11 - - OZO 1013,5 4,9 0,0
16.10.2017 01:00:00 14,8 14,2 11 6 - - OZO 1014,6 3,6 0,0
16.10.2017 00:00:00 15,6 14,9 15 8 - - ZZO 1014,9 6 0,0
15.10.2017 23:00:00 15,4 14,6 9 5 - - ZZO 1015,2 5 0,0
15.10.2017 22:00:00 16,2 15,1 18 10 - - Z 1015,2 6 0,0
15.10.2017 21:00:00 16,9 15,1 29 16 - - Z 1014,7 9 0,0
15.10.2017 20:00:00 16,8 15,0 22 12 - - Z 1014,9 5 0,0
15.10.2017 19:00:00 16,5 14,7 21 11 - - ZZO 1014,8 8 0,0
15.10.2017 18:00:00 16,1 13,6 18 10 - - OZO 1014,8 10 0,0
15.10.2017 17:00:00 16,4 13,5 18 10 - - ZO 1015,0 9 0,0
15.10.2017 16:00:00 17,1 13,9 16 9 - - ZO 1015,5 14 0,0
15.10.2017 15:00:00 16,1 13,6 15 8 - - ZZO 1016,2 13 0,0
15.10.2017 14:00:00 15,8 14,0 15 8 - - ZZO 1016,8 9 0,0
15.10.2017 13:00:00 16,0 13,5 16 9 - - Z 1017,1 16 0,0
15.10.2017 12:00:00 15,8 13,4 21 11 - - Z 1017,4 13 0,0
15.10.2017 11:00:00 14,8 13,0 21 11 - - Z 1017,7 10 0,0
15.10.2017 10:00:00 14,5 12,4 24 13 - - Z 1017,8 11 0,0
15.10.2017 09:00:00 14,3 12,7 16 9 - - ZZW 1017,7 9 0,0
15.10.2017 08:00:00 14,0 12,6 16 9 - - ZZW 1017,4 10 0,0
15.10.2017 07:00:00 14,0 13,8 15 8 - - ZZW 1017,5 6 0,0
15.10.2017 06:00:00 14,2 14,1 15 8 - - ZZW 1017,5 3,8 0,2
15.10.2017 05:00:00 14,1 14,0 13 7 - - ZZW 1017,5 2,0 0,0
15.10.2017 04:00:00 14,3 14,1 16 9 - - ZZW 1017,8 2,9 0,0
15.10.2017 03:00:00 14,8 14,4 22 12 - - ZZW 1018,3 4,4 0,0
15.10.2017 02:00:00 15,4 14,8 18 10 - - ZZO 1018,4 7 0,0
15.10.2017 01:00:00 14,9 14,6 21 11 - - OZO 1018,7 5 0,0
15.10.2017 00:00:00 14,7 14,5 21 11 - - OZO 1019,3 3,9 0,0
14.10.2017 23:00:00 13,9 13,7 18 10 - - O 1019,6 4,0 0,0
14.10.2017 22:00:00 13,3 13,1 13 7 - - O 1020,4 4,7 0,0
14.10.2017 21:00:00 13,4 13,0 13 7 - - O 1021,1 5 0,0
14.10.2017 20:00:00 13,7 12,9 18 10 - - OZO 1021,2 11 0,0
14.10.2017 19:00:00 14,2 13,3 15 8 - - OZO 1021,7 8 0,0
14.10.2017 18:00:00 14,6 13,3 9 5 - - ZO 1022,1 11 0,0
14.10.2017 17:00:00 16,7 13,6 8 4 - - ZZO 1022,8 10 0,0
14.10.2017 16:00:00 17,3 14,6 11 6 - - ZZW 1023,4 35 0,0
14.10.2017 15:00:00 15,3 14,4 13 7 - - Z 1024,2 8 0,0
14.10.2017 14:00:00 15,4 14,5 15 8 - - Z 1024,4 8 0,0
14.10.2017 13:00:00 15,5 14,6 11 6 - - Z 1024,8 8 0,0
14.10.2017 12:00:00 15,7 15,0 18 10 - - Z 1024,9 13 0,0
14.10.2017 11:00:00 15,2 14,9 16 9 - - Z 1025,1 8 0,0

tt = temperatuur
td = dauwpunt
ff = windsnelheid
fx = windstoten
dd = windrichting
ppp = luchtdruk
vv = zicht
rr = neerslag

Weerstations in de omgeving